Regional Weather Roundup
Issued by NWS

Home | Current Version | Previous Version | Graphics & Text | Print | Product List | Glossary On
Versions: 1 2 3 4 5 6 7 8 9 10 11 12 13 14 15 16 17 18 19 20 21 22 23 24 25 26 27 28 29 30 31 32 33 34 35 36 37 38 39 40 41 42 43 44 45 46 47 48 49 50
000
ASUS43 KMKX 012259
RWRWI

WISCONSIN REGIONAL WEATHER ROUNDUP
NATIONAL WEATHER SERVICE MILWAUKEE/SULLIVAN WI
500 PM CST SUN MAR 01 2015

NOTE: "FAIR" INDICATES FEW OR NO CLOUDS BELOW 12,000 FEET WITH NO
SIGNIFICANT WEATHER AND/OR OBSTRUCTIONS TO VISIBILITY.

WIZ001-002-006>008-014>016-023>028-020000-
NORTHWEST WISCONSIN

CITY           SKY/WX    TMP DP  RH WIND       PRES   REMARKS
SUPERIOR ARPT  MOCLDY    25   8  48 W12G22    30.15R WCI  14
ASHLAND        CLEAR     24   4  42 W16G23    30.13R WCI  11
HAYWARD        CLEAR     23   1  38 W7G17     30.13R WCI  15
SIREN          PTCLDY    24   8  51 NW14G22   30.18S WCI  12
CUMBERLAND     PTCLDY    23   5  46 W20       30.16S WCI   8
RICE LAKE      CLEAR     23   6  47 W10       30.19S WCI  12
CHETEK         CLEAR     24   6  46 W10       30.18S WCI  13
LADYSMITH      FAIR      23   6  47 W17       30.16R WCI  10
EAU CLAIRE     NOT AVBL
MENOMONIE      CLEAR     26   7  45 W14G22    30.21S WCI  14
NEW RICHMOND   MOCLDY    25   9  50 W17       30.21R WCI  12
OSCEOLA        CLOUDY    26  11  53 W15       30.24R WCI  14
$$

WIZ003>005-009-010-017-018-020000-
NORTH CENTRAL WISCONSIN

CITY           SKY/WX    TMP DP  RH WIND       PRES   REMARKS
MANITOWISH WTR PTCLDY    21   7  53 W9        30.04F WCI  11
ARBOR VITAE    PTCLDY    22   8  56 W10G17    30.05S WCI  11
WOODRUFF       PTCLDY    22   8  56 W10G17    30.05S WCI  11
RHINELANDER    CLOUDY    18   8  65 W12       30.07S WCI   5
EAGLE RIVER    MOCLDY    19   7  58 W10G16    30.04S WCI   8
LAND O LAKES   PTCLDY    20   8  57 W9G16     30.04S WCI  10
PHILLIPS       PTCLDY    22   5  46 W12G18    30.08S WCI  11
TOMAHAWK       PTCLDY    20   8  59 W10       30.09F WCI   9
MEDFORD        FAIR      21   8  56 W12       30.11S WCI   9
MERRILL        MOCLDY    20  10  63 W9        30.11F WCI   9
$$

WIZ029-030-035-036-043>047-020000-
CENTRAL WISCONSIN

CITY           SKY/WX    TMP DP  RH WIND       PRES   REMARKS
WAUSAU         CLEAR     20   9  62 W15       30.12S WCI   6
MOSINEE        PTCLDY    19  10  68 W17       30.14F WCI   4
MARSHFIELD     CLEAR     22   6  50 W14       30.14F WCI   9
STEVENS POINT  MOCLDY    20  11  65 W9        30.16S WCI  10
WAUPACA        CLOUDY    26  14  60 W14       30.18S WCI  14
WAUTOMA        NOT AVBL
WISC RAPIDS    PTCLDY    24  10  55 W8        30.17F WCI  15
CAMP DOUGLAS   NOT AVBL
$$

WIZ011>013-019>022-031-037>040-048>050-020000-
NORTHEAST WISCONSIN

CITY           SKY/WX    TMP DP  RH WIND       PRES   REMARKS
ANTIGO         CLOUDY    17   9  71 W13G18    30.09F WCI   4
SHAWANO        CLOUDY    25  14  64 W7G17     30.15S WCI  17
OCONTO         CLOUDY    26  15  62 W17G30    30.13S WCI  13
STURGEON BAY   CLOUDY    25  16  68 SW13      30.13F WCI  13
GREEN BAY      MOCLDY    26  16  65 W17       30.14F WCI  13
MANITOWOC      NOT AVBL
APPLETON       MOCLDY    25  12  58 W21G26    30.15S WCI  10
CLINTONVILLE   MOCLDY    23  12  63 W16G23    30.15S WCI  10
OSHKOSH        CLOUDY    27  15  61 SW7       30.16S WCI  19
$$

WIZ032>034-041-042-053>061-020000-
SOUTHWEST WISCONSIN

CITY           SKY/WX    TMP DP  RH WIND       PRES   REMARKS
LA CROSSE      CLEAR     24   7  48 W14       30.27R WCI  12
SPARTA         CLEAR     25   4  39 W10G20    30.24R WCI  15
VIROQUA        CLEAR     23   8  53 W14G22    30.22R WCI  10
BOSCOBEL       CLEAR     25   9  50 W12G18    30.28R WCI  14
PRAIRIE DU CHI CLEAR     24   8  51 W16       30.30S WCI  11
PLATTEVILLE    MOCLDY    25  18  73 SW16      30.25S WCI  12
$$

WIZ056-057-062-063-064-067-068-020000-
SOUTH CENTRAL WISCONSIN

CITY           SKY/WX    TMP DP  RH WIND       PRES   REMARKS
REEDSBURG      MOCLDY    26  14  59 W14G22    30.20S WCI  15
BARABOO/DELLS  CLEAR     26  13  59 W12       30.19R WCI  15
LONE ROCK      NOT AVBL
MINERAL POINT  PTCLDY    28  18  64 W14       30.22S WCI  17
MADISON        PTCLDY    27  16  63 W6        30.21S WCI  20
MIDDLETON      PTCLDY    29  15  56 W14       30.21S WCI  18
WATERTOWN      CLOUDY    26  17  67 SW12G18   30.19F WCI  16
MONROE         MOCLDY    27  19  74 W21       30.23R WCI  13
JANESVILLE     PTCLDY    27  16  63 SW14      30.24S WCI  15
$$

WIZ051-052-058>065-066-070>072-020000-
SOUTHEAST WISCONSIN

CITY           SKY/WX    TMP DP  RH WIND       PRES   REMARKS
MILWAUKEE      PTCLDY    26  13  57 SW14      30.21F WCI  14
WAUKESHA       PTCLDY    23  14  68 SW12G17   30.21S WCI  12
MILWAUKEE/TIMM PTCLDY    27  12  54 SW16      30.21F WCI  14
RACINE         CLEAR     25  13  60 W13G18    30.24R WCI  14
BURLINGTON     CLEAR     23  14  68 W10       30.23S WCI  12
KENOSHA        CLEAR     24  14  65 W14       30.22S WCI  12
FOND DU LAC    MOCLDY    28  14  55 W14G22    30.17S WCI  17
SHEBOYGAN      CLOUDY    26  16  65 W15G24    30.17S WCI  14
WEST BEND      CLOUDY    27  14  59 SW9G20    30.17F WCI  17
JUNEAU         CLOUDY    26  16  65 SW18      30.19F WCI  13
$$

LSZ147-162-020000-
LAKE SUPERIOR

STATION/POSITION TIME  TEMP    WIND        PRES    WAVE
                       AIR SEA DIR/SP/G            HT/PER
                 (UTC) (F)     (DEG/KT/KT) (MB)    (FT/S)
DEVILS ISLAND    2200   24     250/ 21/ 28 1019.2S
PORT WING        2200   25     250/ 14/ 25 1020.0S
SAXON HARBOR     2200   27     280/  6/ 15 1019.0S
$$

LMZ867-665-643>646-020000-
LAKE MICHIGAN

STATION/POSITION TIME  TEMP    WIND        PRES    WAVE
                       AIR SEA DIR/SP/G            HT/PER
                 (UTC) (F)     (DEG/KT/KT) (MB)    (FT/S)
NORTHPORT PIER   2200   27     210/  7/ 16 1019.6F
SISTER BAY       2243   26     210/ 17/ 21   N/A
KEWAUNEE LAKESHO 2212   27     240/  6/ 13 1020.1F
SHEBOYGAN LAKESH 2200   27     230/ 15/ 19 1023.2F
PORT WASHINGTON  2240   27     260/ 11/ 18 1023.0F
MILWAUKEE LAKESH 2200   27     240/ 14/ 18   N/A
KENOSHA   LAKESH 2200   26     240/ 11/ 15 1023.7F
$$

TC  - TEMPERATURE IN CELSIUS
VSB - VISIBILITY IN STATUTE MILES
WCI - WIND CHILL INDEX
HX  - HEAT INDEX



USA.gov is the U.S. government's official web portal to all federal, state and local government web resources and services.